Volver al catálogo

STARLINK-36736

ActivoComunicacionesVLEO
NORAD 67911·PAYLOAD·🇺🇸 United States

Lanzado Feb 22, 2026 desde Vandenberg Space Force Base

Loading…

Próximos Pases (próximas 24 horas)

TLE

ActualizadoSource: CelesTrak SupGP

Época: Sep 15, 2026, 04:15 UTC

1 67911C 26036H   26258.17756944 -.00041639  00000+0 -15084-2 0  2589
2 67911  43.0021 255.1686 0001486 269.6777  10.8706 15.27593532    17

Sigue STARLINK-36736 en tiempo real con AllMySat

Download on the App Store